Weather past 2 weeks in Bantam, Cocos Islands

Now
82 °F

Scattered showers. Scattered clouds.


Feels Like: 88 °F
Forecast: 78 / 85 °F
Wind: 15 mph from Southeast

Location: Cocos Island Airport

Current Time: Apr 22, 2015 at 8:54:39 AM

Latest Report: Apr 22, 2015 at 8:00 AM


Visibility: N/A

Pressure: 29.86 "Hg

Humidity: 74%

Dew point: 73 °F

Location of BantamLocation

Historic Weather in Bantam — Graph

°F

Bantam temperature yesterday

Maximum temperature yesterday: 86 °F (at 10:00 AM)
Minimum temperature yesterday: 79 °F (at 1:00 AM)
Average temperature yesterday: 83 °F

Past Weeks' High & Low Weather Summary

 TemperatureHumidityPressure
High90 °F (Apr 7, 1:00 PM)100% (Apr 10, 7:00 PM)29.89 "Hg (Apr 10, 7:00 PM)
Low75 °F (Apr 10, 7:00 PM)62% (Apr 13, 7:30 PM)29.65 "Hg (Apr 14, 2:30 PM)
Average83 °F81%29.79 "Hg
* Reported Apr 7 7:30 AM — Apr 22 7:30 AM, Bantam, Weather by CustomWeather, © 2015

Note: Actual official high and low records may vary slightly from our data, if they occured in-between our weather recording intervals... More about our weather records

Advertising

Bantam weather history for previous 24 hours

 ConditionsComfort  
Time TempWeatherWind HumidityBarometerVisibility
7:30 AM
Wed, Apr 22
81 °FScattered showers. Partly sunny.12 mph84%29.86 "HgN/A
7:00 AM79 °FSprinkles. Passing clouds.15 mph84%29.86 "Hg6 mi
6:30 AM81 °FScattered showers. Passing clouds.9 mph79%29.83 "HgN/A
6:00 AM81 °FScattered showers. Passing clouds.13 mph84%29.83 "HgN/A
5:00 AM81 °FClear.16 mph79%29.80 "HgN/A
4:30 AM81 °FClear.14 mph79%29.80 "HgN/A
4:00 AM81 °FClear.12 mph84%29.80 "HgN/A
3:30 AM81 °FClear.10 mph84%29.83 "HgN/A
3:00 AM81 °FClear.13 mph84%29.83 "HgN/A
2:30 AM82 °FPassing clouds.9 mph79%29.83 "HgN/A
2:00 AM82 °FWarm.8 mph79%29.83 "HgN/A
1:30 AM82 °FClear.8 mph79%29.83 "HgN/A
1:00 AM82 °FPassing clouds.8 mph79%29.83 "HgN/A
12:30 AM82 °FPassing clouds.9 mph79%29.86 "HgN/A
12:00 AM82 °FPassing clouds.10 mph79%29.86 "HgN/A
11:30 PM
Tue, Apr 21
82 °FClear.10 mph79%29.86 "HgN/A
11:00 PM82 °FPartly cloudy.9 mph79%29.86 "HgN/A
9:30 PM82 °FClear.9 mph79%29.86 "HgN/A
9:00 PM82 °FClear.10 mph74%29.86 "HgN/A
8:30 PM84 °FClear.13 mph70%29.86 "HgN/A
8:00 PM82 °FPassing clouds.12 mph79%29.83 "HgN/A
7:30 PM84 °FClear.12 mph74%29.83 "HgN/A
7:00 PM84 °FPassing clouds.12 mph74%29.80 "HgN/A
6:30 PM84 °FWarm.12 mph74%29.80 "HgN/A
6:00 PM84 °FScattered clouds.10 mph74%29.80 "HgN/A
5:30 PM84 °FScattered clouds.12 mph74%29.80 "HgN/A
5:00 PM84 °FSprinkles. Passing clouds.13 mph70%29.80 "HgN/A
4:30 PM84 °FScattered showers. Scattered clouds.10 mph79%29.77 "HgN/A
4:00 PM86 °FPassing clouds.10 mph70%29.77 "HgN/A
3:30 PM86 °FPassing clouds.12 mph70%29.77 "HgN/A
3:00 PM84 °FSprinkles. Passing clouds.14 mph74%29.77 "HgN/A
2:30 PM86 °FScattered clouds.12 mph75%29.77 "HgN/A
2:00 PM86 °FPassing clouds.13 mph75%29.77 "HgN/A
1:30 PM86 °FPassing clouds.14 mph75%29.80 "HgN/A
1:00 PM86 °FPassing clouds.14 mph70%29.80 "HgN/A
12:30 PM86 °FPassing clouds.15 mph79%29.80 "HgN/A
12:00 PM86 °FPassing clouds.14 mph75%29.83 "HgN/A
11:30 AM86 °FPassing clouds.14 mph75%29.83 "HgN/A
11:00 AM86 °FPassing clouds.13 mph75%29.83 "HgN/A
10:30 AM84 °FPassing clouds.15 mph79%29.86 "HgN/A
10:00 AM86 °FScattered showers. Passing clouds.13 mph75%29.86 "HgN/A
9:30 AM84 °FScattered showers. Scattered clouds.13 mph79%29.86 "HgN/A
8:30 AM84 °FSprinkles. Scattered clouds.9 mph79%29.86 "HgN/A
Weather by CustomWeather, © 2015

See weather overviewHow to use our weather pages